CAPE
1448 1663 2111 1978 1888 1858 1858 1682 1688 1352 1382 1454 1258 905 1836 1840 1540 974 430 418 500 498 523 299 432 406 353 316 343 472 817 1381 1576 1751 1626 1792 2031 1671 1511 1672 1595 1436 1669 818 634 520 335 440 459 366 138 162 195 695 542 343 178 105 61 64 19 0 0 0 0 0 0 0 0 0 0 0 0 0 0 0 0 0 0 0 1 4 1 0 0
1219 1820 1772 1988 1995 1862 1688 1642 1674 1564 1587 1450 1438 1446 1870 1936 1197 852 603 496 626 710 630 582 253 414 360 358 310 455 772 1291 1514 1161 1200 1764 2006 1698 1676 1605 1580 1272 1254 1597 719 573 369 494 446 424 252 134 126 859 685 455 274 231 144 38 32 4 1 0 0 0 0 0 0 0 0 0 0 0 0 0 0 0 0 0 0 1 0 0 0
1396 1604 1566 1524 1862 1737 1460 1451 1542 1720 1642 1409 1572 1637 1721 1805 1583 1128 717 849 942 796 406 702 445 292 246 349 507 595 722 1021 1238 1247 1169 1340 2095 2185 1660 1567 1586 1340 1316 946 1130 1105 630 444 421 400 385 272 122 113 763 620 513 432 261 96 60 25 3 0 0 0 0 0 0 0 0 0 0 0 0 0 0 0 0 0 0 0 0 0 0
1186 1283 1573 1651 1588 1468 1549 1511 1453 1548 1625 1621 1654 1634 1440 1431 1800 1811 1359 890 744 711 631 772 650 350 272 260 374 477 518 674 854 1131 1519 1655 1993 1771 1841 1522 1554 1296 1420 1028 824 854 1229 378 272 417 422 382 312 149 245 576 805 628 428 203 100 62 8 4 0 0 0 0 0 0 0 0 0 0 0 0 0 0 0 0 0 0 0 0 0
1229 1544 1431 1519 1630 1744 1706 1540 1630 1503 1400 1506 1476 1522 1558 1453 1781 1726 1585 919 661 856 692 655 665 462 316 304 244 231 208 504 668 942 1388 1730 1656 1431 1494 1796 1289 1366 1171 1329 840 978 875 603 382 291 408 372 253 263 122 48 636 815 682 394 200 110 55 17 5 0 0 0 0 0 0 0 0 0 0 0 0 0 0 0 0 0 0 0 0
1555 1406 1426 1563 1588 1548 1557 1517 1472 1500 1419 1436 1330 1489 961 1170 1196 1731 1479 1310 1136 1016 865 849 994 856 646 625 565 648 336 183 585 759 1548 1682 1452 1574 1307 1441 1879 1602 1328 1581 1212 900 656 758 486 441 341 256 235 158 190 117 66 32 496 608 275 209 110 48 16 1 0 0 0 0 0 0 0 0 0 0 0 0 0 0 0 0 0 0 0
1389 1518 1410 1453 1323 1459 1503 1546 1491 1384 964 978 1196 1076 763 705 660 685 930 1555 1494 1356 1327 1328 1282 1028 1163 997 795 738 793 350 228 404 596 1215 2353 1914 1646 1540 1251 1271 1237 1242 1723 1068 852 862 653 491 490 364 245 148 159 167 121 50 10 788 490 265 170 109 80 26 0 0 0 0 0 0 0 0 0 0 0 0 0 0 0 0 0 0 0
1456 1352 1203 1028 1000 1115 1473 1506 1427 1438 1311 876 943 632 1113 974 834 1091 731 820 1130 1393 1285 1312 1242 1246 1261 1363 1265 997 1018 957 788 437 604 769 911 1402 1772 1896 2071 1673 1757 1319 1250 1001 684 934 941 1125 609 438 349 244 193 196 164 58 20 663 638 411 339 213 145 106 33 6 0 0 0 0 0 0 0 0 0 0 0 0 0 0 0 0 0
1326 1497 1036 842 821 830 992 1355 1440 1367 1210 738 620 1068 1168 1141 829 980 1126 855 967 1324 1274 1317 1333 1344 1269 1237 1235 1170 1130 1122 1266 930 963 1184 1383 1721 1723 1737 1821 1523 1767 946 1087 1332 1152 826 1252 757 1057 839 527 488 361 388 282 185 85 59 812 623 480 361 223 178 93 24 1 0 0 0 0 0 0 1 0 0 0 0 0 0 0 0 0
1503 1402 1198 1094 1111 1074 800 1262 1279 1380 1294 1442 1200 1176 1176 1284 1074 1416 1552 1727 1690 1468 1384 1355 1205 1220 1293 1210 1255 1291 1384 1346 1397 1287 921 1070 1071 1621 1637 1907 2058 1585 1498 1094 1037 963 901 949 754 706 884 879 945 677 582 560 447 165 140 26 397 737 555 578 425 253 187 129 34 1 0 0 0 0 0 0 1 0 0 0 0 0 0 0 0
1486 1464 1464 1120 758 931 770 1157 1298 1221 1457 1281 1181 1307 1286 1200 1078 1400 1646 1631 1599 1645 1753 1540 1387 1135 1174 1232 1146 1257 1233 1267 1088 1120 1476 1524 1437 1237 1271 1764 1597 1924 1311 1066 1321 943 926 840 774 1159 968 528 916 1068 849 633 707 638 327 245 68 250 289 255 723 454 420 256 143 43 16 1 0 0 0 0 0 1 1 0 0 0 0 0 0
1575 1552 1347 1152 753 834 1252 1209 1186 1152 1116 928 1249 1349 1272 1127 1119 1325 1697 1458 1405 1529 1435 1479 1453 1434 1245 1266 1102 1129 1201 978 1024 1171 1346 1780 1764 1665 1694 1759 2024 2041 1856 1328 1183 1009 1008 900 926 619 817 581 568 958 1065 1075 950 794 923 860 667 326 310 385 267 504 668 454 374 188 78 18 0 0 0 0 0 0 0 0 0 0 0 0 0
1114 1600 1676 1125 1471 1556 1364 1252 1102 1149 1251 1245 1308 1420 1468 1452 1210 1424 1793 1511 1384 1125 960 1278 1331 1332 1372 1329 1387 1328 1277 1037 938 1066 1060 1048 1324 1347 1554 1660 1920 1957 1273 801 826 1072 950 1015 962 729 1061 907 558 536 677 734 743 1027 963 874 746 946 865 435 408 272 449 594 572 479 227 184 34 2 0 0 0 0 0 0 0 0 0 0 0
789 723 579 549 646 862 888 780 720 843 750 762 781 994 996 1249 1274 1544 1646 1467 1371 1436 1202 1531 1306 1349 1297 1295 1354 1287 1287 1161 938 945 970 857 802 1008 1502 1631 1448 1566 1181 1093 862 885 820 1180 1084 738 843 1059 1327 1181 1067 937 853 710 1107 1054 905 740 796 837 936 552 375 328 474 677 464 237 125 58 19 0 0 0 0 0 0 0 0 0 0
652 504 457 292 279 340 252 298 322 262 401 476 666 665 654 683 1170 1285 1683 1647 1368 1501 1600 1521 1276 1274 1236 1161 1148 1054 1117 1114 1129 979 919 965 980 940 1239 1117 1093 1157 722 888 1054 874 922 1133 729 962 1136 1200 1402 1076 1167 818 805 638 757 704 893 912 919 938 952 748 674 562 368 361 705 505 256 177 104 67 13 0 0 0 0 0 0 0 0
178 42 18 154 184 196 174 207 248 377 275 206 367 345 638 694 697 888 1145 1462 1402 1404 1480 1595 1416 1218 1199 1037 1023 1048 891 574 708 988 965 1169 861 963 888 671 325 863 1117 1026 1020 1078 929 1173 1449 1366 971 778 734 837 1014 1097 827 602 617 583 598 592 962 1064 1089 949 584 589 594 692 687 793 610 386 243 216 115 30 1 0 0 0 0 0 0
230 163 74 135 117 145 136 163 290 314 277 303 340 322 239 357 567 717 728 888 1241 1507 1480 1590 1646 1571 1222 961 955 1008 857 476 518 682 1128 866 703 787 872 709 577 934 840 942 1184 1250 1250 1196 1397 1432 1226 1201 1209 954 1128 1428 1150 968 757 298 504 377 568 832 972 882 929 768 705 675 683 673 696 735 529 370 242 149 43 11 1 0 0 0 0
144 130 28 89 89 140 169 62 382 155 98 175 198 263 233 204 405 530 604 820 919 1509 1317 1169 1216 1493 1489 1346 919 1051 899 1091 784 412 970 732 925 722 740 929 911 632 1059 1184 964 970 934 1074 1060 873 1010 1261 1438 1078 762 983 1265 1063 674 809 712 530 399 282 479 808 965 896 754 816 825 795 734 750 883 660 387 260 182 87 47 25 7 2 0
117 76 39 9 39 29 69 71 28 24 21 72 160 152 98 295 336 410 446 566 760 802 1033 950 999 1127 1377 1324 1226 1290 1374 1239 1070 704 401 931 573 774 930 917 602 650 739 515 937 1155 1060 816 745 805 800 860 928 1086 1017 817 539 694 459 372 415 467 510 439 356 272 314 448 527 650 822 894 878 752 731 740 724 558 366 267 191 134 75 52 125
14 16 8 0 0 0 0 0 0 0 0 6 9 8 29 246 603 574 528 1032 1145 1259 1359 1129 1002 1276 1161 1233 1119 1241 847 1369 1182 740 950 856 672 395 680 609 492 369 275 359 488 775 847 830 694 792 706 853 604 687 707 892 1079 890 411 300 262 238 222 240 263 252 218 207 201 441 492 592 766 854 838 728 572 464 555 510 328 257 247 228 239
15 11 0 0 0 0 0 0 0 0 0 0 0 0 16 181 110 182 247 263 395 582 863 1109 1145 1274 1224 732 850 1178 957 907 1173 1054 979 445 403 499 319 213 298 256 91 267 330 312 254 187 202 486 448 500 736 680 658 725 920 668 276 318 322 394 438 367 382 398 370 353 458 427 498 677 765 765 784 878 774 510 381 434 335 362 362 268 225
5 0 0 0 0 0 0 0 0 0 0 0 1 27 54 58 113 136 150 109 156 289 389 631 1045 1204 1058 849 940 1011 1066 994 1178 1176 1389 824 468 455 706 704 370 188 68 179 22 0 0 0 0 31 313 464 301 330 417 249 137 226 364 430 519 485 440 369 468 476 381 335 257 476 733 618 701 742 730 730 873 858 608 355 410 410 498 420 385
0 0 0 0 0 0 0 0 0 0 0 0 0 0 2 2 4 10 14 21 89 263 255 385 359 281 354 347 314 515 430 540 929 1160 1015 1005 775 767 579 318 205 118 2 0 0 0 58 0 0 0 0 4 8 3 0 0 27 74 151 150 168 146 152 239 275 262 333 263 295 422 592 740 778 845 867 878 832 697 626 538 592 530 416 450 439
0 0 0 0 0 0 0 0 0 0 0 0 0 0 0 0 0 0 0 7 12 6 45 70 38 44 53 19 14 27 65 106 159 645 895 731 753 488 109 36 27 2 0 0 0 0 0 0 0 1 1 1 0 0 0 0 0 0 0 0 0 0 0 27 48 110 141 179 218 338 345 302 340 308 392 543 533 618 593 545 557 410 376 376 333
0 0 0 0 0 0 0 0 0 0 0 0 0 0 0 0 0 0 0 0 0 0 2 10 11 2 0 0 0 0 0 4 12 32 163 473 585 88 51 34 28 2 0 0 0 0 0 0 0 0 0 0 0 1 0 0 0 0 0 0 0 0 4 46 48 105 146 197 197 204 175 129 98 86 61 0 0 22 180 208 184 170 19 40 101
0 0 0 0 0 0 0 0 0 0 0 0 0 0 0 0 0 0 0 0 0 0 0 0 0 0 0 0 0 0 0 0 0 4 26 46 115 81 42 27 28 4 0 0 0 0 0 0 0 0 0 0 0 0 0 0 0 0 0 0 0 0 72 96 111 111 102 103 75 44 29 10 0 0 0 0 0 0 0 0 0 0 0 0 0
2 0 0 0 0 0 0 0 0 0 0 0 0 0 0 0 0 0 0 0 0 0 0 0 0 0 0 0 0 0 0 0 0 0 0 23 24 60 65 34 16 4 1 0 0 0 0 0 0 0 0 0 0 0 0 0 0 0 0 18 0 0 0 0 0 0 0 0 0 0 0 0 0 0 0 0 0 0 0 0 0 0 0 0 0
4 3 5 0 0 0 0 0 3 2 0 0 0 0 0 0 0 0 0 0 0 0 0 0 0 0 0 0 0 0 0 0 0 0 0 0 12 26 9 5 0 0 0 0 0 0 0 0 0 0 0 0 0 0 0 0 0 0 0 0 0 0 0 0 0 0 0 0 0 0 0 0 0 0 0 0 0 0 0 0 0 0 0 0 0
11 18 13 1 2 2 0 9 28 28 9 0 0 0 0 0 0 0 0 0 0 0 0 0 0 0 0 0 0 0 0 0 0 0 0 0 0 0 1 4 0 0 0 0 0 0 0 0 0 0 0 0 0 0 0 0 0 0 0 0 0 0 0 0 0 0 0 0 0 0 0 0 0 0 0 0 0 0 0 0 0 0 0 0 0
39 28 22 14 14 11 17 16 29 46 45 5 0 1 0 0 0 0 0 0 0 0 0 0 0 0 0 0 0 0 0 0 0 0 0 0 0 0 0 0 0 0 0 0 0 0 0 0 0 0 0 0 0 0 0 0 0 0 0 0 0 0 0 0 0 0 0 0 0 0 0 0 0 0 0 0 0 0 0 0 0 0 0 0 0
29 38 20 20 50 82 63 47 41 54 73 43 40 30 22 11 0 0 0 0 0 0 0 0 0 0 0 0 0 0 0 0 0 0 0 0 0 0 0 0 0 0 0 0 0 0 0 0 0 0 0 0 0 0 0 0 0 0 0 0 0 0 0 0 0 0 0 0 0 0 0 0 0 0 0 0 0 0 0 0 0 0 0 0 0
64 51 44 61 94 135 124 108 107 95 96 105 62 54 63 55 77 18 1 0 0 0 0 0 0 0 0 0 0 0 0 0 0 0 0 0 0 0 0 0 0 0 0 0 0 0 0 0 0 0 0 0 0 0 0 0 0 0 0 0 0 0 0 0 0 0 0 0 0 0 0 0 0 0 0 0 0 0 0 0 0 0 0 0 0
302 230 128 122 99 184 208 158 164 184 166 161 161 152 126 95 44 58 64 58 17 2 0 0 0 0 0 0 0 0 0 0 0 0 0 0 0 0 0 0 0 0 0 0 0 0 0 0 0 0 0 0 0 0 0 0 0 0 0 0 0 0 0 0 0 0 0 0 0 0 0 0 0 0 0 0 0 0 0 0 0 0 0 0 0
318 335 212 222 189 237 246 290 309 288 278 269 231 237 213 257 207 123 128 53 69 58 44 8 0 0 0 0 0 0 0 0 0 0 0 0 0 0 0 0 0 0 0 0 0 0 0 0 0 0 0 0 0 0 0 0 0 0 0 0 0 0 0 0 0 0 0 0 0 0 0 0 0 0 0 0 0 0 0 0 0 0 0 0 0
303 177 262 340 362 363 378 382 357 360 367 415 470 444 363 362 397 388 291 230 196 159 195 171 73 4 0 0 0 0 0 0 0 0 0 0 0 0 0 0 0 0 0 0 0 0 0 0 0 0 0 0 0 0 0 0 0 0 0 0 0 0 0 0 0 0 0 0 0 0 0 0 0 0 0 0 0 0 0 0 0 0 0 0 0
516 396 408 421 427 486 484 480 460 476 465 546 516 449 452 448 363 402 440 454 436 409 241 174 96 88 136 58 10 0 0 0 0 0 0 0 0 0 0 0 0 0 0 0 0 0 0 0 0 0 0 0 0 0 0 0 0 0 0 0 0 0 0 0 0 0 0 0 0 0 0 0 0 0 0 0 0 0 0 0 0 0 0 0 0
553 592 654 636 658 595 720 601 608 581 606 616 617 676 783 718 657 624 587 458 570 568 645 556 236 329 238 207 221 129 3 7 3 0 0 0 0 0 2 2 0 0 0 0 1 0 5 1 0 0 0 0 0 0 0 0 0 0 0 0 0 0 0 0 0 0 0 0 0 0 0 0 0 0 0 0 0 0 0 0 0 0 0 0 0
986 907 784 787 772 845 874 678 590 576 540 602 600 646 643 739 815 808 746 708 659 582 571 492 621 664 594 466 307 346 290 159 145 14 0 0 0 0 0 0 0 0 0 0 1 13 8 0 0 0 0 0 0 0 0 0 0 0 0 0 0 0 0 0 0 0 0 0 0 0 0 0 0 0 0 0 0 0 0 0 0 0 0 0 0
987 1060 1076 1007 990 891 785 698 659 660 658 715 718 806 723 727 870 790 938 954 817 780 687 594 657 761 756 628 616 510 494 470 328 152 114 28 2 1 0 0 0 0 0 0 0 31 57 37 13 4 2 0 0 0 0 0 0 0 0 0 0 0 0 0 0 0 0 0 0 0 0 0 0 0 0 0 0 0 0 0 0 0 0 0 0
1091 1035 1059 919 995 953 859 815 779 813 888 828 843 936 1010 1077 1030 853 993 1087 1040 1002 1046 907 961 893 831 762 756 648 588 651 631 511 257 212 20 2 1 1 0 0 0 0 1 1 22 16 8 1 8 12 3 0 0 0 0 0 0 0 0 0 0 0 0 0 0 0 0 0 0 0 0 0 0 0 0 0 0 0 0 0 0 0 0
1148 1033 966 906 1065 922 976 960 926 935 942 1133 1136 1015 974 994 940 1000 1123 1172 1229 1242 1263 1035 787 512 483 657 627 717 414 79 0 1 13 30 78 13 0 0 0 0 0 0 0 2 2 0 1 1 10 9 8 13 11 8 0 0 0 0 0 0 0 0 0 0 0 0 0 0 0 0 0 0 0 0 0 0 0 0 0 0 0 0 0
828 757 948 1124 1176 1250 1067 1009 1202 1124 1113 1118 0 0 11 745 1076 941 1093 1193 1129 1279 1136 989 971 700 650 667 565 78 86 4 48 0 48 72 50 32 144 2 0 1 0 0 0 0 0 2 1 2 5 1 3 4 0 0 0 1 0 0 0 0 0 0 0 0 0 0 0 0 0 0 0 0 0 0 0 0 0 0 0 0 0 0 0
664 693 594 1045 953 1005 955 1063 1144 1179 1050 277 19 5 12 0 649 871 654 602 687 729 824 1186 1071 980 1227 906 839 438 12 0 0 0 108 74 0 0 0 0 0 0 0 0 0 0 0 0 0 0 0 2 6 7 2 0 0 0 0 0 0 0 0 0 0 0 0 0 0 0 0 0 0 0 0 0 0 0 0 0 0 0 0 0 0
1020 961 955 958 1044 1101 1176 1162 1206 1114 343 102 0 0 0 0 0 537 614 468 510 388 382 300 274 383 298 353 450 486 453 361 315 308 38 60 59 48 0 0 0 0 0 6 0 0 0 0 0 0 0 3 7 9 6 4 0 0 0 0 0 0 0 0 0 0 0 0 0 0 0 0 0 0 0 0 0 0 0 0 0 0 0 0 0
821 967 1052 983 993 1036 985 755 444 61 24 0 0 0 0 0 0 149 528 743 464 468 574 396 251 166 144 109 174 138 256 9 13 306 195 215 0 126 165 175 179 159 132 103 76 10 43 0 0 0 0 1 0 0 0 0 0 3 0 0 0 0 0 0 0 0 0 0 0 0 0 0 0 0 0 0 0 0 0 0 0 0 0 0 0
862 954 1233 1029 646 433 257 85 53 21 4 0 0 0 0 0 0 103 489 682 670 627 697 694 642 367 279 184 101 112 95 218 158 192 244 153 7 0 0 0 0 0 0 33 63 74 0 0 0 0 0 0 0 0 0 0 0 0 0 0 0 0 0 0 0 0 0 0 0 0 0 0 0 0 0 0 0 0 0 0 0 0 0 0 0
666 534 360 142 123 57 39 10 5 10 0 0 0 0 0 0 0 18 420 584 421 551 630 660 597 498 431 336 328 198 190 233 0 0 152 86 27 0 0 0 0 0 0 0 0 0 0 0 2 2 0 0 0 0 0 0 0 2 3 1 0 0 0 0 0 0 0 0 0 0 0 0 0 0 0 0 0 0 0 0 0 0 0 0 0
100 72 14 2 6 4 0 0 0 0 0 0 0 0 0 0 0 592 198 272 238 236 361 433 318 283 311 308 216 251 141 4 0 0 0 18 11 0 0 0 0 0 0 0 0 0 0 0 0 0 0 1 1 1 2 2 4 2 0 0 0 0 0 0 0 0 0 0 0 0 0 0 0 0 0 0 0 0 0 0 0 0 0 0 0
5 1 17 5 0 0 0 2 1 0 2 0 0 0 0 0 39 10 0 0 17 110 230 225 132 19 6 33 137 60 1 0 0 0 0 0 3 0 0 0 0 0 0 0 0 0 0 0 0 0 1 0 0 2 4 2 0 0 0 0 0 0 0 0 0 0 0 0 0 0 0 0 0 0 0 0 0 0 0 0 0 0 0 0 0
3 8 1 0 2 4 11 28 18 22 15 0 0 0 0 0 0 358 0 0 0 0 54 44 4 0 0 0 0 0 0 0 0 0 0 0 2 1 6 3 2 0 0 0 0 1 0 0 0 0 0 6 7 0 0 0 0 0 0 0 0 0 0 0 0 0 0 0 0 0 0 0 0 0 0 0 0 0 0 0 0 0 0 0 0
11 4 0 5 20 25 53 121 3 128 54 0 0 0 0 0 0 120 0 0 0 0 0 0 0 0 0 0 0 0 0 0 0 0 0 0 2 6 9 12 11 16 0 0 0 0 0 0 0 0 0 0 0 0 0 0 0 0 0 0 0 0 0 0 0 0 0 0 0 0 0 0 0 0 0 0 0 0 0 0 0 0 0 0 0
Wind_Speed
22 22 19 18 19 19 18 18 17 17 18 17 17 18 16 15 15 14 15 15 17 18 19 20 21 21 21 21 21 21 22 22 22 24 25 26 26 29 28 28 28 25 24 24 23 23 22 22 22 21 20 20 19 20 20 19 19 18 nan nan nan nan nan nan nan nan nan nan nan nan nan nan nan nan nan nan nan nan nan nan nan nan nan nan nan
16 19 19 19 18 18 17 17 16 16 16 17 17 16 15 15 14 13 14 14 16 18 18 19 20 23 22 22 22 21 23 22 22 23 26 28 28 29 27 27 28 27 26 25 21 23 22 24 22 23 21 21 19 20 20 20 19 19 19 nan nan nan nan nan nan nan nan nan nan nan nan nan nan nan nan nan nan nan nan nan nan nan nan nan nan
16 17 16 18 17 18 17 17 16 15 14 16 15 15 14 14 13 14 14 15 17 18 15 18 18 20 22 20 22 23 23 23 22 23 24 26 26 28 27 27 28 27 26 25 25 23 22 23 23 24 23 21 20 19 20 19 20 20 21 nan nan nan nan nan nan nan nan nan nan nan nan nan nan nan nan nan nan nan nan nan nan nan nan nan nan
16 17 13 16 16 16 16 15 14 14 15 14 14 14 13 13 14 14 15 15 15 15 15 16 17 18 20 21 22 22 23 23 21 23 23 23 24 26 27 24 25 26 25 24 24 24 24 21 24 25 24 23 22 20 19 18 18 20 21 22 21 nan nan nan nan nan nan nan nan nan nan nan nan nan nan nan nan nan nan nan nan nan nan nan nan
15 14 15 14 14 13 13 12 13 12 15 14 12 12 12 12 14 14 14 14 13 13 13 14 15 15 17 20 20 19 20 21 22 23 21 21 21 25 25 21 19 20 21 22 24 25 24 24 25 23 27 24 24 22 21 nan 21 19 20 22 22 22 nan nan nan nan nan nan nan nan nan nan nan nan nan nan nan nan nan nan nan nan nan nan nan
16 15 14 14 14 12 13 12 13 13 14 12 10 11 10 11 12 13 13 12 13 13 13 12 12 14 15 17 17 18 18 17 22 21 21 21 20 19 22 23 19 18 17 20 22 25 25 25 25 25 27 26 26 23 24 21 nan nan 20 21 23 23 22 nan nan nan nan nan nan nan nan nan nan nan nan nan nan nan nan nan nan nan nan nan nan
16 15 14 13 14 13 13 12 12 13 12 10 8 11 9 10 11 15 8 11 13 14 13 12 13 12 15 15 15 15 15 16 19 16 19 20 21 20 20 21 25 17 18 18 22 24 26 26 26 26 27 28 27 26 24 23 24 nan nan 23 21 21 22 22 nan nan nan nan nan nan nan nan nan nan nan nan nan nan nan nan nan nan nan nan nan
15 14 16 17 15 14 13 11 10 9 13 10 10 7 13 11 12 12 12 10 10 14 14 13 13 13 14 14 14 14 15 16 17 16 17 18 17 20 19 19 21 20 21 25 25 26 26 26 27 28 27 28 28 28 26 24 24 nan nan 23 22 20 21 21 21 20 nan nan nan nan nan nan nan nan nan nan nan nan nan nan nan nan nan nan nan
15 15 15 15 15 15 11 12 10 11 12 12 6 7 11 12 13 9 12 13 8 13 14 14 14 13 13 12 13 15 15 17 19 18 20 19 17 18 19 18 20 24 21 22 23 24 27 25 26 27 27 26 27 26 26 25 25 23 nan nan 24 22 21 21 21 21 nan nan nan nan nan nan nan nan nan nan nan nan nan nan nan nan nan nan nan
14 15 15 15 16 13 13 13 13 12 11 10 9 10 9 11 11 11 11 12 12 13 14 15 15 13 13 12 13 14 16 18 19 20 17 20 18 18 18 17 18 19 21 25 26 29 27 25 27 25 26 23 23 23 25 26 25 25 25 nan 24 23 21 22 22 23 22 22 nan nan nan nan nan nan nan nan nan nan nan nan nan nan nan nan nan
14 14 13 16 16 15 14 14 13 13 11 10 9 10 10 10 9 11 11 12 14 15 15 16 14 13 13 13 13 15 15 17 16 18 18 18 19 17 16 15 14 16 19 25 22 28 29 26 22 22 24 19 20 20 22 25 27 28 27 26 nan 23 21 23 23 24 24 22 23 nan nan nan nan nan nan nan nan nan nan nan nan nan nan nan nan
15 14 13 14 17 15 15 13 13 11 12 9 11 12 11 10 9 8 11 14 14 15 16 14 14 14 13 14 13 14 14 15 15 17 18 20 19 18 16 16 15 14 20 22 21 25 27 27 26 23 21 19 18 21 21 24 29 30 30 28 27 26 23 22 24 26 24 22 22 24 nan nan nan nan nan nan nan nan nan nan nan nan nan nan nan
15 15 14 14 15 16 15 15 13 13 13 13 14 14 14 13 11 9 9 12 15 16 16 14 13 15 15 13 14 14 14 14 15 15 18 18 21 18 19 16 15 19 21 23 16 20 21 21 27 23 21 24 23 23 25 27 31 31 29 28 29 29 27 25 24 26 25 23 23 23 25 24 nan nan nan nan nan nan nan nan nan nan nan nan nan
15 14 15 15 15 15 16 16 15 16 15 15 15 16 16 15 13 12 11 12 14 14 16 15 14 13 14 15 14 16 16 16 15 15 17 18 18 17 17 16 18 20 21 22 23 19 20 21 23 25 22 24 27 28 27 28 30 27 29 29 29 27 26 25 28 25 26 25 24 24 26 26 25 nan nan nan nan nan nan nan nan nan nan nan nan
15 15 15 15 15 16 16 16 16 15 16 16 16 16 16 17 15 13 14 15 15 16 16 15 14 17 15 14 14 14 19 17 17 15 16 16 18 17 18 19 18 21 22 20 22 23 24 25 24 22 23 24 25 29 28 27 31 27 29 29 30 30 28 26 28 31 31 28 27 25 28 27 26 25 24 nan nan nan nan nan nan nan nan nan nan
16 nan nan 17 16 17 16 16 16 15 16 17 17 17 18 17 18 17 16 16 17 19 18 18 16 17 17 16 17 18 17 20 18 16 17 18 17 18 16 17 20 21 21 20 23 24 23 24 25 25 24 23 20 22 25 26 32 28 28 29 29 29 28 30 29 31 28 28 33 32 30 27 26 26 25 25 23 nan nan nan nan nan nan nan nan
16 16 nan 18 17 17 16 16 16 16 17 18 19 19 18 19 19 18 17 16 18 20 19 18 18 17 18 17 17 18 22 19 20 16 17 19 21 18 21 15 17 22 19 24 24 23 23 26 24 24 24 23 20 18 20 24 26 25 27 29 31 33 31 29 29 29 28 28 30 30 29 28 27 26 25 26 26 24 nan nan nan nan nan nan nan
15 17 nan nan nan 17 15 nan 16 16 nan 18 19 19 19 19 20 19 18 18 16 18 20 19 19 20 20 22 21 20 20 21 20 21 19 24 19 24 23 20 17 21 22 24 26 27 26 26 26 25 25 24 22 22 21 22 24 25 26 31 29 33 33 32 30 28 27 28 29 29 28 26 25 28 27 27 27 25 24 nan nan nan nan nan nan
17 nan nan nan nan nan nan nan nan nan nan nan 19 19 nan 20 19 20 20 20 18 17 18 20 19 20 21 20 21 20 19 17 19 25 21 20 25 23 22 22 25 26 24 25 24 26 26 26 26 25 26 25 22 22 21 22 24 25 30 28 28 27 27 26 26 27 28 29 30 31 30 27 28 27 27 27 25 25 24 22 21 21 nan nan 20
nan nan nan nan nan nan nan nan nan nan nan nan nan nan nan 21 21 21 21 22 21 21 21 19 19 21 20 19 20 19 19 18 19 17 23 20 23 23 23 24 26 27 26 26 26 26 26 25 26 26 25 23 23 22 23 22 23 24 27 28 26 26 26 28 30 32 33 31 32 32 29 28 26 26 26 25 25 24 22 18 19 20 20 18 18
nan nan nan nan nan nan nan nan nan nan nan nan nan nan nan 21 21 22 23 23 23 23 23 23 22 22 21 19 18 19 19 19 19 19 20 21 17 20 23 23 25 25 nan 24 26 26 27 27 27 28 27 25 25 26 25 24 24 25 28 28 28 25 26 28 31 33 33 30 30 29 27 26 24 22 22 23 23 21 20 21 20 19 18 17 18
nan nan nan nan nan nan nan nan nan nan nan nan nan nan nan nan 23 22 22 23 23 24 24 25 25 24 22 21 20 20 19 20 20 20 19 22 17 21 22 22 24 26 nan 24 nan nan nan nan nan nan 29 28 29 29 30 29 27 26 27 30 30 32 32 30 30 31 31 30 29 28 29 29 29 28 26 23 20 18 20 22 20 16 16 17 18
nan nan nan nan nan nan nan nan nan nan nan nan nan nan nan nan nan nan nan nan nan 24 25 25 25 26 24 23 22 22 22 21 22 21 20 21 22 23 23 24 25 26 nan nan nan nan nan nan nan nan nan nan nan nan nan nan nan nan 34 33 33 33 34 30 28 29 29 29 28 27 30 33 33 34 34 33 31 29 20 19 18 15 16 18 21
nan nan nan nan nan nan nan nan nan nan nan nan nan nan nan nan nan nan nan nan nan nan nan nan nan nan nan nan nan nan nan 22 22 22 19 21 20 22 23 nan nan nan nan nan nan nan nan nan nan nan nan nan nan nan nan nan nan nan nan nan nan nan nan nan nan 30 30 31 29 28 29 31 32 35 37 39 37 35 33 34 34 35 32 27 23
nan nan nan nan nan nan nan nan nan nan nan nan nan nan nan nan nan nan nan nan nan nan nan nan nan nan nan nan nan nan nan nan nan nan 21 20 21 nan nan nan nan nan nan nan nan nan nan nan nan nan nan nan nan nan nan nan nan nan nan nan nan nan nan nan nan 35 35 33 30 29 30 30 nan nan nan nan nan nan 40 40 39 38 nan nan 33
nan nan nan nan nan nan nan nan nan nan nan nan nan nan nan nan nan nan nan nan nan nan nan nan nan nan nan nan nan nan nan nan nan nan nan nan 19 nan nan nan nan nan nan nan nan nan nan nan nan nan nan nan nan nan nan nan nan nan nan nan nan nan nan nan 38 37 35 33 nan nan nan nan nan nan nan nan nan nan nan nan nan nan nan nan nan
nan nan nan nan nan nan nan nan nan nan nan nan nan nan nan nan nan nan nan nan nan nan nan nan nan nan nan nan nan nan nan nan nan nan nan nan nan nan nan nan nan nan nan nan nan nan nan nan nan nan nan nan nan nan nan nan nan nan nan nan nan nan nan nan nan nan nan nan nan nan nan nan nan nan nan nan nan nan nan nan nan nan nan nan nan
nan nan nan nan nan nan nan nan nan nan nan nan nan nan nan nan nan nan nan nan nan nan nan nan nan nan nan nan nan nan nan nan nan nan nan nan nan nan nan nan nan nan nan nan nan nan nan nan nan nan nan nan nan nan nan nan nan nan nan nan nan nan nan nan nan nan nan nan nan nan nan nan nan nan nan nan nan nan nan nan nan nan nan nan nan
nan nan nan nan nan nan nan nan nan nan nan nan nan nan nan nan nan nan nan nan nan nan nan nan nan nan nan nan nan nan nan nan nan nan nan nan nan nan nan nan nan nan nan nan nan nan nan nan nan nan nan nan nan nan nan nan nan nan nan nan nan nan nan nan nan nan nan nan nan nan nan nan nan nan nan nan nan nan nan nan nan nan nan nan nan
nan nan nan nan nan nan nan nan nan nan nan nan nan nan nan nan nan nan nan nan nan nan nan nan nan nan nan nan nan nan nan nan nan nan nan nan nan nan nan nan nan nan nan nan nan nan nan nan nan nan nan nan nan nan nan nan nan nan nan nan nan nan nan nan nan nan nan nan nan nan nan nan nan nan nan nan nan nan nan nan nan nan nan nan nan
nan nan nan nan nan nan nan nan nan nan nan nan nan nan nan nan nan nan nan nan nan nan nan nan nan nan nan nan nan nan nan nan nan nan nan nan nan nan nan nan nan nan nan nan nan nan nan nan nan nan nan nan nan nan nan nan nan nan nan nan nan nan nan nan nan nan nan nan nan nan nan nan nan nan nan nan nan nan nan nan nan nan nan nan nan
nan nan nan nan nan 20 20 22 21 nan nan 19 nan nan nan nan nan nan nan nan nan nan nan nan nan nan nan nan nan nan nan nan nan nan nan nan nan nan nan nan nan nan nan nan nan nan nan nan nan nan nan nan nan nan nan nan nan nan nan nan nan nan nan nan nan nan nan nan nan nan nan nan nan nan nan nan nan nan nan nan nan nan nan nan nan
24 22 20 18 nan 18 20 20 21 22 22 20 19 17 17 nan nan nan nan nan nan nan nan nan nan nan nan nan nan nan nan nan nan nan nan nan nan nan nan nan nan nan nan nan nan nan nan nan nan nan nan nan nan nan nan nan nan nan nan nan nan nan nan nan nan nan nan nan nan nan nan nan nan nan nan nan nan nan nan nan nan nan nan nan nan
23 23 22 20 18 18 19 20 20 21 21 21 18 16 16 16 16 15 14 nan nan nan nan nan nan nan nan nan nan nan nan nan nan nan nan nan nan nan nan nan nan nan nan nan nan nan nan nan nan nan nan nan nan nan nan nan nan nan nan nan nan nan nan nan nan nan nan nan nan nan nan nan nan nan nan nan nan nan nan nan nan nan nan nan nan
22 23 23 20 19 18 18 19 20 20 20 20 18 17 18 18 17 18 17 18 18 18 18 18 nan nan nan nan nan nan nan nan nan nan nan nan nan nan nan nan nan nan nan nan nan nan nan nan nan nan nan nan nan nan nan nan nan nan nan nan nan nan nan nan nan nan nan nan nan nan nan nan nan nan nan nan nan nan nan nan nan nan nan nan nan
24 24 23 20 19 18 18 18 20 20 20 19 19 20 21 21 19 19 19 20 20 19 19 19 nan nan 20 nan nan nan nan nan nan nan nan nan nan nan nan nan nan nan nan nan nan nan nan nan nan nan nan nan nan nan nan nan nan nan nan nan nan nan nan nan nan nan nan nan nan nan nan nan nan nan nan nan nan nan nan nan nan nan nan nan nan
21 21 20 19 18 18 18 17 19 20 21 20 21 22 23 21 20 19 18 19 20 19 20 20 21 21 23 22 22 22 nan nan nan nan nan nan nan nan nan nan nan nan nan nan nan nan nan nan nan nan nan nan nan nan nan nan nan nan nan nan nan nan nan nan nan nan nan nan nan nan nan nan nan nan nan nan nan nan nan nan nan nan nan nan nan
19 18 18 18 16 17 17 18 20 22 23 24 23 24 23 23 22 21 20 21 19 18 19 20 20 21 22 21 21 21 21 22 23 nan nan nan nan nan nan nan nan nan nan nan nan nan nan nan nan nan nan nan nan nan nan nan nan nan nan nan nan nan nan nan nan nan nan nan nan nan nan nan nan nan nan nan nan nan nan nan nan nan nan nan nan
19 18 17 18 18 16 16 17 20 22 24 24 24 24 23 23 24 24 22 21 20 20 19 19 20 21 21 21 19 19 20 22 24 24 23 nan nan nan nan nan nan nan nan nan nan nan nan nan nan nan nan nan nan nan nan nan nan nan nan nan nan nan nan nan nan nan nan nan nan nan nan nan nan nan nan nan nan nan nan nan nan nan nan nan nan
19 18 18 19 20 19 19 18 20 23 24 24 25 25 25 26 26 26 24 22 21 21 21 22 24 25 25 23 21 22 21 20 22 23 22 24 nan nan nan nan nan nan nan nan nan nan nan nan nan nan nan nan nan nan nan nan nan nan nan nan nan nan nan nan nan nan nan nan nan nan nan nan nan nan nan nan nan nan nan nan nan nan nan nan nan
23 22 21 21 21 21 21 21 23 25 25 27 28 28 27 27 28 28 26 25 24 24 24 27 30 28 27 26 26 27 33 nan nan nan nan nan nan nan nan nan nan nan nan nan nan nan nan nan nan nan nan nan nan nan nan nan nan nan nan nan nan nan nan nan nan nan nan nan nan nan nan nan nan nan nan nan nan nan nan nan nan nan nan nan nan
31 27 23 24 25 26 26 27 27 28 28 31 nan nan nan 31 31 31 30 29 28 29 29 31 33 30 31 31 32 nan nan nan nan nan nan nan nan nan 32 nan nan nan nan nan nan nan nan nan nan nan nan nan nan nan nan nan nan nan nan nan nan nan nan nan nan nan nan nan nan nan nan nan nan nan nan nan nan nan nan nan nan nan nan nan nan
34 30 24 27 29 31 30 31 31 32 34 35 nan nan nan nan 32 34 35 36 36 37 37 36 36 35 34 35 36 42 nan nan nan nan 35 nan nan nan nan nan nan nan nan nan nan nan nan nan nan nan nan nan nan nan nan nan nan nan nan nan nan nan nan nan nan nan nan nan nan nan nan nan nan nan nan nan nan nan nan nan nan nan nan nan nan
37 35 35 35 36 36 36 37 37 38 39 40 nan nan nan nan nan 37 39 40 41 41 40 39 39 39 38 39 40 41 41 43 39 40 nan nan nan nan nan nan nan nan nan nan nan nan nan nan nan nan nan nan nan nan nan nan nan nan nan nan nan nan nan nan nan nan nan nan nan nan nan nan nan nan nan nan nan nan nan nan nan nan nan nan nan
43 41 41 41 40 41 41 42 44 nan nan nan nan nan nan nan nan 38 44 44 42 42 41 40 40 41 41 40 41 42 46 nan nan 39 41 45 nan 45 46 50 50 47 48 50 nan nan nan nan nan nan nan nan nan nan nan nan nan nan nan nan nan nan nan nan nan nan nan nan nan nan nan nan nan nan nan nan nan nan nan nan nan nan nan nan nan
46 44 41 41 44 46 47 nan nan nan nan nan nan nan nan nan nan 38 45 44 44 43 43 42 41 42 41 40 41 41 nan 42 42 41 40 42 nan nan nan nan nan nan nan nan nan nan nan nan nan nan nan nan nan nan nan nan nan nan nan nan nan nan nan nan nan nan nan nan nan nan nan nan nan nan nan nan nan nan nan nan nan nan nan nan nan
50 47 45 47 49 nan nan nan nan nan nan nan nan nan nan nan nan nan 45 44 44 45 45 45 43 43 42 42 41 42 45 48 nan nan 41 nan nan nan nan nan nan nan nan nan nan nan nan nan nan nan nan nan nan nan nan nan nan nan nan nan nan nan nan nan nan nan nan nan nan nan nan nan nan nan nan nan nan nan nan nan nan nan nan nan nan
50 nan nan nan nan nan nan nan nan nan nan nan nan nan nan nan nan 40 46 46 47 47 48 48 47 46 46 45 45 49 51 nan nan nan nan nan nan nan nan nan nan nan nan nan nan nan nan nan nan nan nan nan nan nan nan nan nan nan nan nan nan nan nan nan nan nan nan nan nan nan nan nan nan nan nan nan nan nan nan nan nan nan nan nan nan
nan nan nan nan nan nan nan nan nan nan nan nan nan nan nan nan nan nan nan nan nan 48 49 48 50 nan nan nan 49 nan nan nan nan nan nan nan nan nan nan nan nan nan nan nan nan nan nan nan nan nan nan nan nan nan nan nan nan nan nan nan nan nan nan nan nan nan nan nan nan nan nan nan nan nan nan nan nan nan nan nan nan nan nan nan nan
nan nan nan nan nan nan nan nan nan nan nan nan nan nan nan nan nan 42 nan nan nan nan nan nan nan nan nan nan nan nan nan nan nan nan nan nan nan nan nan nan nan nan nan nan nan nan nan nan nan nan nan nan nan nan nan nan nan nan nan nan nan nan nan nan nan nan nan nan nan nan nan nan nan nan nan nan nan nan nan nan nan nan nan nan nan
nan nan nan nan nan nan nan 49 nan 46 nan nan nan nan nan nan nan 38 nan nan nan nan nan nan nan nan nan nan nan nan nan nan nan nan nan nan nan nan nan nan nan nan nan nan nan nan nan nan nan nan nan nan nan nan nan nan nan nan nan nan nan nan nan nan nan nan nan nan nan nan nan nan nan nan nan nan nan nan nan nan nan nan nan nan nan
Wind_Direction
281 282 286 289 289 290 291 290 286 288 284 279 274 273 270 268 268 267 266 263 257 253 249 244 243 242 240 241 242 248 251 250 250 253 255 258 260 269 273 271 266 260 253 253 261 266 265 264 263 262 257 257 256 270 266 260 258 255 nan nan nan nan nan nan nan nan nan nan nan nan nan nan nan nan nan nan nan nan nan nan nan nan nan nan nan
286 288 290 289 290 291 292 289 290 286 283 281 277 276 273 267 266 264 259 256 254 249 241 242 239 241 239 239 246 243 250 249 251 250 250 250 256 265 274 271 263 260 254 249 259 262 263 267 263 265 261 258 256 271 267 266 264 261 256 nan nan nan nan nan nan nan nan nan nan nan nan nan nan nan nan nan nan nan nan nan nan nan nan nan nan
279 286 287 295 294 292 291 288 289 283 280 280 275 267 267 266 262 258 252 245 244 246 242 241 236 245 244 242 244 244 246 249 249 249 252 255 256 261 269 273 262 256 255 252 248 251 256 269 267 269 267 264 261 259 268 267 269 265 262 nan nan nan nan nan nan nan nan nan nan nan nan nan nan nan nan nan nan nan nan nan nan nan nan nan nan
279 283 293 293 296 296 293 291 290 288 283 278 280 278 273 271 267 264 253 250 247 244 241 237 235 235 246 243 244 246 248 249 249 254 253 257 259 259 262 269 261 250 253 254 256 252 242 258 267 268 269 268 265 262 264 265 268 266 267 265 261 nan nan nan nan nan nan nan nan nan nan nan nan nan nan nan nan nan nan nan nan nan nan nan nan
294 293 289 292 289 293 295 294 286 284 284 285 288 285 273 267 274 260 267 261 251 247 242 244 239 235 236 249 247 249 245 250 249 248 251 252 256 259 264 266 265 251 255 258 259 256 253 252 259 259 272 270 266 265 259 nan 269 268 266 270 268 264 nan nan nan nan nan nan nan nan nan nan nan nan nan nan nan nan nan nan nan nan nan nan nan
293 290 286 287 289 290 291 288 283 283 282 280 293 287 270 259 245 264 263 265 266 253 248 249 246 243 244 240 245 242 246 250 253 251 251 253 253 252 260 270 264 259 263 267 262 263 255 255 258 255 254 260 262 260 262 257 nan nan 268 269 269 268 267 nan nan nan nan nan nan nan nan nan nan nan nan nan nan nan nan nan nan nan nan nan nan
286 284 283 283 281 284 289 280 280 291 288 287 267 262 277 277 276 255 243 260 262 262 254 250 246 247 248 246 245 255 258 253 260 258 260 256 251 252 250 253 265 266 263 264 270 266 265 258 257 253 257 256 257 256 254 260 261 nan nan 270 271 270 270 268 nan nan nan nan nan nan nan nan nan nan nan nan nan nan nan nan nan nan nan nan nan
282 284 277 269 271 272 273 279 283 292 287 286 286 316 285 274 270 286 270 240 251 267 266 261 258 251 250 250 254 254 260 267 267 267 264 260 262 262 257 256 254 253 252 253 262 270 270 262 253 251 251 253 254 253 255 255 263 nan nan 275 274 275 271 270 268 264 nan nan nan nan nan nan nan nan nan nan nan nan nan nan nan nan nan nan nan
285 282 280 281 278 277 276 274 275 267 265 274 282 265 265 276 268 267 281 276 272 268 268 267 264 265 261 260 261 261 262 262 267 270 271 269 260 264 266 263 260 250 249 252 266 263 269 261 259 252 248 250 254 254 254 257 262 263 nan nan 273 272 270 269 273 268 nan nan nan nan nan nan nan nan nan nan nan nan nan nan nan nan nan nan nan
285 285 283 284 282 284 280 280 274 274 272 272 275 267 271 272 282 282 279 276 268 263 269 268 271 273 271 268 262 264 265 265 264 260 266 277 280 269 268 267 262 265 255 249 244 253 260 263 253 256 255 255 261 262 259 258 259 263 262 nan 271 276 271 272 276 275 271 268 nan nan nan nan nan nan nan nan nan nan nan nan nan nan nan nan nan
279 282 281 283 278 275 281 277 279 278 276 280 281 276 274 272 275 277 272 268 261 261 260 265 269 268 274 279 277 273 266 266 267 272 269 265 263 269 275 278 279 272 264 264 261 260 259 272 274 264 267 266 265 265 260 256 255 252 256 262 nan 263 264 262 276 280 276 267 267 nan nan nan nan nan nan nan nan nan nan nan nan nan nan nan nan
276 275 277 278 291 296 284 283 281 285 289 290 281 280 279 281 279 275 272 267 265 263 264 267 273 275 275 270 266 267 270 270 269 270 269 268 269 269 270 273 276 276 269 254 259 269 271 271 268 266 264 272 271 262 261 257 253 253 254 252 251 256 260 261 259 276 277 271 271 271 nan nan nan nan nan nan nan nan nan nan nan nan nan nan nan
279 281 279 278 274 278 283 283 283 279 277 275 280 282 283 282 278 268 265 268 265 259 263 265 273 279 278 278 277 275 274 273 278 277 277 270 265 261 267 270 269 267 251 269 264 264 269 270 270 272 273 268 268 267 259 259 256 253 251 254 254 246 245 250 262 267 277 277 276 275 275 274 nan nan nan nan nan nan nan nan nan nan nan nan nan
278 276 275 276 277 276 274 272 273 272 272 277 281 283 286 286 283 275 265 261 260 259 260 263 273 271 276 281 280 278 274 277 275 279 276 280 279 282 271 269 268 261 274 279 290 287 279 277 273 275 276 274 272 270 267 263 259 258 255 252 255 258 254 250 247 256 265 272 273 279 276 275 272 nan nan nan nan nan nan nan nan nan nan nan nan
279 277 274 271 272 273 271 270 269 271 274 275 276 278 277 281 285 277 270 264 260 262 260 263 263 270 266 265 277 278 283 275 276 270 273 273 275 281 284 284 280 272 267 268 267 272 276 275 276 280 280 276 268 267 264 262 268 272 262 256 254 255 258 259 258 256 250 254 264 265 271 271 270 269 271 nan nan nan nan nan nan nan nan nan nan
279 nan nan 269 266 269 272 269 266 264 266 269 271 270 271 272 273 275 270 266 269 266 261 263 263 270 280 275 273 276 274 268 262 269 275 271 273 267 269 270 273 280 269 266 267 268 270 272 277 276 278 280 273 262 264 262 264 266 266 261 258 259 259 261 262 263 265 260 255 254 256 266 266 267 269 269 266 nan nan nan nan nan nan nan nan
274 269 nan 266 261 260 262 268 268 266 265 265 265 263 265 268 270 268 270 266 270 270 268 269 268 263 263 274 279 282 269 276 281 267 268 279 275 279 272 265 265 268 284 271 267 266 268 271 269 271 271 277 278 272 262 259 259 259 266 266 257 253 255 259 261 265 264 263 262 260 258 254 255 262 264 264 267 269 nan nan nan nan nan nan nan
272 270 nan nan nan 260 261 nan 271 270 nan 267 266 267 263 261 263 266 269 272 269 277 276 274 269 268 262 263 269 264 271 278 277 275 263 259 258 249 256 260 262 253 249 267 266 264 267 270 270 273 276 277 275 268 253 251 252 249 248 252 253 254 253 250 254 257 259 258 260 260 257 257 256 251 253 258 265 270 272 nan nan nan nan nan nan
270 nan nan nan nan nan nan nan nan nan nan nan 266 264 nan 261 262 264 266 267 270 274 278 275 278 271 268 262 261 261 258 259 263 272 267 266 258 262 256 249 249 255 254 251 259 265 266 269 272 272 272 272 271 270 273 266 263 264 253 251 250 257 259 256 252 250 248 247 248 250 252 254 256 255 252 252 256 265 273 275 275 273 nan nan 268
nan nan nan nan nan nan nan nan nan nan nan nan nan nan nan 268 265 266 267 267 266 267 269 272 269 273 272 269 269 262 261 258 263 252 264 274 269 260 257 255 257 257 256 258 261 265 266 266 270 271 271 273 271 272 271 273 269 266 263 255 252 254 255 252 250 250 250 245 244 248 251 248 248 251 252 256 259 262 266 270 271 273 272 269 265
nan nan nan nan nan nan nan nan nan nan nan nan nan nan nan 268 270 270 269 270 270 269 270 269 270 271 276 271 266 261 261 259 255 258 265 265 266 265 263 265 262 260 nan 260 258 261 263 263 262 267 268 264 266 265 266 266 263 260 255 254 254 257 258 257 255 254 251 247 249 254 254 253 250 250 253 259 263 264 264 263 262 270 274 270 264
nan nan nan nan nan nan nan nan nan nan nan nan nan nan nan nan 267 268 269 272 272 269 268 270 271 269 264 267 269 271 270 262 257 257 261 265 267 273 268 268 264 263 nan 264 nan nan nan nan nan nan 264 267 264 261 261 258 257 258 256 250 254 258 262 266 265 261 256 254 257 256 253 257 251 249 247 247 250 252 252 258 269 276 276 276 276
nan nan nan nan nan nan nan nan nan nan nan nan nan nan nan nan nan nan nan nan nan 276 275 272 273 272 271 268 263 256 251 249 252 255 250 255 257 262 265 264 266 267 nan nan nan nan nan nan nan nan nan nan nan nan nan nan nan nan 255 251 249 252 258 261 260 260 260 255 254 258 256 257 253 251 246 248 244 240 238 252 267 274 265 253 241
nan nan nan nan nan nan nan nan nan nan nan nan nan nan nan nan nan nan nan nan nan nan nan nan nan nan nan nan nan nan nan 253 252 251 250 255 257 259 262 nan nan nan nan nan nan nan nan nan nan nan nan nan nan nan nan nan nan nan nan nan nan nan nan nan nan 255 252 251 249 250 255 260 258 252 248 245 244 244 244 248 250 249 251 255 251
nan nan nan nan nan nan nan nan nan nan nan nan nan nan nan nan nan nan nan nan nan nan nan nan nan nan nan nan nan nan nan nan nan nan 255 255 258 nan nan nan nan nan nan nan nan nan nan nan nan nan nan nan nan nan nan nan nan nan nan nan nan nan nan nan nan 251 249 248 249 251 253 256 nan nan nan nan nan nan 246 248 249 251 nan nan 246
nan nan nan nan nan nan nan nan nan nan nan nan nan nan nan nan nan nan nan nan nan nan nan nan nan nan nan nan nan nan nan nan nan nan nan nan 263 nan nan nan nan nan nan nan nan nan nan nan nan nan nan nan nan nan nan nan nan nan nan nan nan nan nan nan 256 256 255 255 nan nan nan nan nan nan nan nan nan nan nan nan nan nan nan nan nan
nan nan nan nan nan nan nan nan nan nan nan nan nan nan nan nan nan nan nan nan nan nan nan nan nan nan nan nan nan nan nan nan nan nan nan nan nan nan nan nan nan nan nan nan nan nan nan nan nan nan nan nan nan nan nan nan nan nan nan nan nan nan nan nan nan nan nan nan nan nan nan nan nan nan nan nan nan nan nan nan nan nan nan nan nan
nan nan nan nan nan nan nan nan nan nan nan nan nan nan nan nan nan nan nan nan nan nan nan nan nan nan nan nan nan nan nan nan nan nan nan nan nan nan nan nan nan nan nan nan nan nan nan nan nan nan nan nan nan nan nan nan nan nan nan nan nan nan nan nan nan nan nan nan nan nan nan nan nan nan nan nan nan nan nan nan nan nan nan nan nan
nan nan nan nan nan nan nan nan nan nan nan nan nan nan nan nan nan nan nan nan nan nan nan nan nan nan nan nan nan nan nan nan nan nan nan nan nan nan nan nan nan nan nan nan nan nan nan nan nan nan nan nan nan nan nan nan nan nan nan nan nan nan nan nan nan nan nan nan nan nan nan nan nan nan nan nan nan nan nan nan nan nan nan nan nan
nan nan nan nan nan nan nan nan nan nan nan nan nan nan nan nan nan nan nan nan nan nan nan nan nan nan nan nan nan nan nan nan nan nan nan nan nan nan nan nan nan nan nan nan nan nan nan nan nan nan nan nan nan nan nan nan nan nan nan nan nan nan nan nan nan nan nan nan nan nan nan nan nan nan nan nan nan nan nan nan nan nan nan nan nan
nan nan nan nan nan nan nan nan nan nan nan nan nan nan nan nan nan nan nan nan nan nan nan nan nan nan nan nan nan nan nan nan nan nan nan nan nan nan nan nan nan nan nan nan nan nan nan nan nan nan nan nan nan nan nan nan nan nan nan nan nan nan nan nan nan nan nan nan nan nan nan nan nan nan nan nan nan nan nan nan nan nan nan nan nan
nan nan nan nan nan 271 270 273 277 nan nan 265 nan nan nan nan nan nan nan nan nan nan nan nan nan nan nan nan nan nan nan nan nan nan nan nan nan nan nan nan nan nan nan nan nan nan nan nan nan nan nan nan nan nan nan nan nan nan nan nan nan nan nan nan nan nan nan nan nan nan nan nan nan nan nan nan nan nan nan nan nan nan nan nan nan
280 281 278 277 nan 272 272 274 278 277 272 267 262 260 260 nan nan nan nan nan nan nan nan nan nan nan nan nan nan nan nan nan nan nan nan nan nan nan nan nan nan nan nan nan nan nan nan nan nan nan nan nan nan nan nan nan nan nan nan nan nan nan nan nan nan nan nan nan nan nan nan nan nan nan nan nan nan nan nan nan nan nan nan nan nan
284 284 285 280 277 275 270 272 275 276 272 267 263 258 259 262 262 259 261 nan nan nan nan nan nan nan nan nan nan nan nan nan nan nan nan nan nan nan nan nan nan nan nan nan nan nan nan nan nan nan nan nan nan nan nan nan nan nan nan nan nan nan nan nan nan nan nan nan nan nan nan nan nan nan nan nan nan nan nan nan nan nan nan nan nan
283 285 286 286 285 279 272 270 273 272 267 262 260 261 263 265 263 263 263 264 266 270 274 272 nan nan nan nan nan nan nan nan nan nan nan nan nan nan nan nan nan nan nan nan nan nan nan nan nan nan nan nan nan nan nan nan nan nan nan nan nan nan nan nan nan nan nan nan nan nan nan nan nan nan nan nan nan nan nan nan nan nan nan nan nan
278 280 285 288 286 283 277 273 272 270 266 261 263 267 272 272 267 266 268 270 271 270 267 267 nan nan 271 nan nan nan nan nan nan nan nan nan nan nan nan nan nan nan nan nan nan nan nan nan nan nan nan nan nan nan nan nan nan nan nan nan nan nan nan nan nan nan nan nan nan nan nan nan nan nan nan nan nan nan nan nan nan nan nan nan nan
277 279 282 283 285 285 280 277 271 270 268 265 268 273 274 270 265 265 268 270 271 271 270 268 269 267 268 270 272 276 nan nan nan nan nan nan nan nan nan nan nan nan nan nan nan nan nan nan nan nan nan nan nan nan nan nan nan nan nan nan nan nan nan nan nan nan nan nan nan nan nan nan nan nan nan nan nan nan nan nan nan nan nan nan nan
270 273 277 279 281 283 278 272 266 262 260 261 267 273 271 268 266 265 265 268 269 269 272 272 270 271 274 276 275 274 274 275 275 nan nan nan nan nan nan nan nan nan nan nan nan nan nan nan nan nan nan nan nan nan nan nan nan nan nan nan nan nan nan nan nan nan nan nan nan nan nan nan nan nan nan nan nan nan nan nan nan nan nan nan nan
272 273 274 275 273 273 274 271 268 267 266 266 268 270 267 264 264 265 265 265 268 269 269 270 268 267 269 272 271 270 270 269 271 274 278 nan nan nan nan nan nan nan nan nan nan nan nan nan nan nan nan nan nan nan nan nan nan nan nan nan nan nan nan nan nan nan nan nan nan nan nan nan nan nan nan nan nan nan nan nan nan nan nan nan nan
269 273 276 273 267 264 265 265 265 266 269 270 270 268 266 263 262 261 261 260 260 265 267 266 266 264 262 262 264 262 263 266 266 271 271 274 nan nan nan nan nan nan nan nan nan nan nan nan nan nan nan nan nan nan nan nan nan nan nan nan nan nan nan nan nan nan nan nan nan nan nan nan nan nan nan nan nan nan nan nan nan nan nan nan nan
260 264 267 267 265 264 265 267 268 268 267 267 265 264 266 265 260 258 257 257 259 262 269 272 269 268 268 265 261 261 255 nan nan nan nan nan nan nan nan nan nan nan nan nan nan nan nan nan nan nan nan nan nan nan nan nan nan nan nan nan nan nan nan nan nan nan nan nan nan nan nan nan nan nan nan nan nan nan nan nan nan nan nan nan nan
263 250 251 260 264 268 271 271 270 268 266 262 nan nan nan 254 259 258 259 259 261 264 268 272 274 270 269 267 268 nan nan nan nan nan nan nan nan nan 271 nan nan nan nan nan nan nan nan nan nan nan nan nan nan nan nan nan nan nan nan nan nan nan nan nan nan nan nan nan nan nan nan nan nan nan nan nan nan nan nan nan nan nan nan nan nan
268 267 263 264 266 266 268 269 268 267 262 257 nan nan nan nan 253 259 258 259 260 264 269 270 271 271 269 268 268 274 nan nan nan nan 271 nan nan nan nan nan nan nan nan nan nan nan nan nan nan nan nan nan nan nan nan nan nan nan nan nan nan nan nan nan nan nan nan nan nan nan nan nan nan nan nan nan nan nan nan nan nan nan nan nan nan
268 266 267 267 265 264 264 265 264 262 259 254 nan nan nan nan nan 254 258 260 262 264 266 267 268 268 266 265 266 267 267 266 266 274 nan nan nan nan nan nan nan nan nan nan nan nan nan nan nan nan nan nan nan nan nan nan nan nan nan nan nan nan nan nan nan nan nan nan nan nan nan nan nan nan nan nan nan nan nan nan nan nan nan nan nan
267 268 270 271 270 267 265 265 263 nan nan nan nan nan nan nan nan 258 261 261 264 265 264 264 263 263 263 263 265 267 270 nan nan 269 266 272 nan 270 271 271 268 267 267 265 nan nan nan nan nan nan nan nan nan nan nan nan nan nan nan nan nan nan nan nan nan nan nan nan nan nan nan nan nan nan nan nan nan nan nan nan nan nan nan nan nan
266 265 267 269 268 266 264 nan nan nan nan nan nan nan nan nan nan 261 262 264 264 265 266 265 265 264 265 265 265 268 nan 273 269 266 265 267 nan nan nan nan nan nan nan nan nan nan nan nan nan nan nan nan nan nan nan nan nan nan nan nan nan nan nan nan nan nan nan nan nan nan nan nan nan nan nan nan nan nan nan nan nan nan nan nan nan
265 266 264 262 261 nan nan nan nan nan nan nan nan nan nan nan nan nan 263 265 266 267 266 267 266 265 266 268 269 268 269 269 nan nan 268 nan nan nan nan nan nan nan nan nan nan nan nan nan nan nan nan nan nan nan nan nan nan nan nan nan nan nan nan nan nan nan nan nan nan nan nan nan nan nan nan nan nan nan nan nan nan nan nan nan nan
264 nan nan nan nan nan nan nan nan nan nan nan nan nan nan nan nan 265 266 267 267 266 267 265 265 265 266 268 270 270 270 nan nan nan nan nan nan nan nan nan nan nan nan nan nan nan nan nan nan nan nan nan nan nan nan nan nan nan nan nan nan nan nan nan nan nan nan nan nan nan nan nan nan nan nan nan nan nan nan nan nan nan nan nan nan
nan nan nan nan nan nan nan nan nan nan nan nan nan nan nan nan nan nan nan nan nan 269 267 268 268 nan nan nan 268 nan nan nan nan nan nan nan nan nan nan nan nan nan nan nan nan nan nan nan nan nan nan nan nan nan nan nan nan nan nan nan nan nan nan nan nan nan nan nan nan nan nan nan nan nan nan nan nan nan nan nan nan nan nan nan nan
nan nan nan nan nan nan nan nan nan nan nan nan nan nan nan nan nan 262 nan nan nan nan nan nan nan nan nan nan nan nan nan nan nan nan nan nan nan nan nan nan nan nan nan nan nan nan nan nan nan nan nan nan nan nan nan nan nan nan nan nan nan nan nan nan nan nan nan nan nan nan nan nan nan nan nan nan nan nan nan nan nan nan nan nan nan
nan nan nan nan nan nan nan 263 nan 262 nan nan nan nan nan nan nan 261 nan nan nan nan nan nan nan nan nan nan nan nan nan nan nan nan nan nan nan nan nan nan nan nan nan nan nan nan nan nan nan nan nan nan nan nan nan nan nan nan nan nan nan nan nan nan nan nan nan nan nan nan nan nan nan nan nan nan nan nan nan nan nan nan nan nan nan